Weather Roundup
Issued by NWS Chicago, IL

Home | Current Version | Previous Version | Text Only | Print | Product List | Glossary Off
Versions: 1 2 3 4 5 6 7 8 9 10 11 12 13 14 15 16 17 18 19 20 21 22 23 24 25 26 27 28 29 30 31 32 33 34 35 36 37 38 39 40 41 42 43 44 45 46 47 48 49 50

000
NZUS59 KLOT 221523
HRRLOT

CHICAGO AREA WEATHER ROUNDUP
NATIONAL WEATHER SERVICE CHICAGO/ROMEOVILLE IL
1000 AM CDT WED OCT 22 2014

NOTE: "FAIR" INDICATES FEW OR NO CLOUDS BELOW 12,000 FEET WITH NO
SIGNIFICANT WEATHER AND/OR OBSTRUCTIONS TO VISIBILITY.

* THESE STATIONS ARE NOT UNDER NWS QUALITY CONTROL. THEY ALSO MAY NOT
  REPORT WEATHER SUCH AS PRECIPITATION OR FOG.

ILZ005-006-012>014-019>023-221600-
NORTHEAST ILLINOIS

CITY           SKY/WX    TMP DP  RH WIND       PRES   REMARKS
OHARE          MOSUNNY   49  40  71 SE7       30.36R
MIDWAY         MOSUNNY   49  37  63 VRB5      30.37R
AURORA         SUNNY     50  40  68 CALM      30.36S
LANSING*       SUNNY     47  38  71 E3        30.38S
JOLIET*        SUNNY     48  38  68 SE3       30.38R
WAUKEGAN       PTSUNNY   50  42  74 CALM      30.35F
DUPAGE AIRPORT SUNNY     51  42  71 N3        30.35S
WHEELING       PTSUNNY   51  40  65 E5        30.37R
KANKAKEE*      SUNNY     48  39  69 E5        30.38R
MORRIS*        SUNNY     49  40  71 SE3       30.36S
LEWIS AIRPORT* SUNNY     48  37  65 SE3       30.37S
NORTHERLY IS     N/A     49  39  68 SE6         N/A
$$

WIZ051-052-058>065-066-070>072-221600-
SOUTHEAST WISCONSIN

CITY           SKY/WX    TMP DP  RH WIND       PRES   REMARKS
MILWAUKEE      PTSUNNY   49  40  71 CALM      30.37S
KENOSHA*       SUNNY     49  43  80 SE3       30.36S
RACINE*        PTSUNNY   50  40  68 E9        30.38S
BURLINGTON     SUNNY     45  40  85 CALM      30.36S
WAUKESHA       PTSUNNY   45  41  87 E6        30.37S
WEST BEND      SUNNY     45  39  81 CALM      30.37S
$$

INZ001>003-010>013-019-020-221600-
NORTHWEST INDIANA

CITY           SKY/WX    TMP DP  RH WIND       PRES   REMARKS
GARY*          MOSUNNY   46  36  66 VRB3      30.38R
MICHIGAN CITY* NOT AVBL
RENSSELAER*    NOT AVBL
VALPARAISO     SUNNY     45  38  76 E6        30.37R
$$

LMZ740>746-221600-
SOUTHERN LAKE MICHIGAN

STATION/POSITION TIME  SKY/WX   TEMP WIND        PRES    VSBY
                                AIR  DIR/SP/G
                 (UTC)          (F)  (DEG/KT/KT) (MB)    (MI)
HARRISON CRIB    NOT AVBL
BURNHAM HARBOR   1500            50  100/  4/  6   N/A
CALUMET HARBOR   1500            47  110/  4/  6 1027.3R
BURNS HARBOR     NOT AVBL
MICHIGAN CITY    1500            45   90/  6/  7   N/A
$$

ABBREVIATIONS USED IN REMARKS
   TC - TEMPERATURE IN CELSIUS
  WCI - WIND CHILL INDEX
   HX - HEAT INDEX
  VSB - VISIBILITY
$$



USA.gov is the U.S. government's official web portal to all federal, state and local government web resources and services.